Date String (YYYY-MM-DD hh:mm:ss) UTC,Instrument flags,absolute air pressure of the measurement (hPa),sample flow rate (lpm),inlet stack bypass flow (lpm),air temperature of the measurement (°C),ambient temperature measured by the external sensor (°C),aerosol sample conditioner tube jacket temperature (°C),OPC LED temperature (°C),internal box temperature (°C),relative humidity of the measurement (%),span deviation,mass concentration of particles derived from Lorenz-Mie calculation of OPC scattering (μg/m³),mass concentration of particles derived from Lorenz-Mie calculation of OPC scattering (μg/m³),mass concentration of particles derived from Lorenz-Mie calculation of OPC scattering (μg/m³)
DateTimeUTC,F1_M11,P_M11,Q1_M11,Q2_M11,T1_M11,T2_M11,T3_M11,T4_M11,T5_M11,U1_M11,ZSPAN_M11,X2_M11,X0_M11,X1_M11
2024-04-05 05:00:00,SystemResetWarning,0822.8,5.00,000.00,025.7,024.8,000.0,034.3,027.5,009.9,0000.0,0003.14,0011.01,0002.13
2024-04-05 05:01:00,SystemResetWarning,0822.7,4.99,000.00,025.7,024.8,000.0,034.3,027.5,010.0,0000.0,0003.17,0010.59,0002.15
2024-04-05 05:02:00,SystemResetWarning,0822.7,5.00,000.00,025.7,024.8,000.0,034.3,027.5,010.0,0000.0,0003.17,0010.26,0002.15
2024-04-05 05:03:00,SystemResetWarning,0822.8,5.01,000.00,025.7,024.8,000.0,034.3,027.5,009.8,0000.0,0003.13,0009.98,0002.14
2024-04-05 05:04:00,SystemResetWarning,0822.7,5.01,000.00,025.7,024.8,000.0,034.3,027.5,010.1,0000.0,0003.11,0009.89,0002.15
2024-04-05 05:05:00,SystemResetWarning,0822.8,4.97,000.00,025.7,024.8,000.0,034.3,027.5,010.0,0000.0,0003.10,0009.74,0002.15
2024-04-05 05:06:00,SystemResetWarning,0822.7,5.00,000.00,025.7,024.8,000.0,034.3,027.5,010.0,0000.0,0003.05,0009.60,0002.14
2024-04-05 05:07:00,SystemResetWarning,0822.8,5.00,000.00,025.7,024.8,000.0,034.3,027.5,009.9,0000.0,0003.03,0008.67,0002.14
2024-04-05 05:08:00,SystemResetWarning,0822.6,5.00,000.00,025.7,024.8,000.0,034.3,027.5,010.0,0000.0,0003.03,0008.69,0002.15
2024-04-05 05:09:00,SystemResetWarning,0822.5,5.00,000.00,025.7,024.8,000.0,034.3,027.5,009.9,0000.0,0003.03,0008.43,0002.15
2024-04-05 05:10:00,SystemResetWarning,0822.9,5.00,000.00,025.7,024.8,000.0,034.3,027.5,010.0,0000.0,0003.07,0008.31,0002.17
2024-04-05 05:11:00,SystemResetWarning,0823.1,5.00,000.00,025.7,024.8,000.0,034.3,027.5,009.9,0000.0,0003.03,0008.22,0002.16
2024-04-05 05:12:00,SystemResetWarning,0823.1,5.00,000.00,025.7,024.8,000.0,034.3,027.5,009.9,0000.0,0003.00,0007.75,0002.16
2024-04-05 05:13:00,SystemResetWarning,0822.9,5.01,000.00,025.7,024.9,000.0,034.3,027.6,009.9,0000.0,0003.03,0008.25,0002.16
2024-04-05 05:14:00,SystemResetWarning,0822.5,5.02,000.00,025.7,024.9,000.0,034.3,027.6,009.7,0000.0,0003.07,0008.29,0002.17
2024-04-05 05:15:00,SystemResetWarning,0822.5,4.99,000.00,025.7,024.9,000.0,034.3,027.6,009.7,0000.0,0003.13,0009.50,0002.17
2024-04-05 05:16:00,SystemResetWarning,0822.4,4.99,000.00,025.7,024.9,000.0,034.3,027.6,009.9,0000.0,0003.14,0010.04,0002.17
2024-04-05 05:17:00,SystemResetWarning,0822.4,5.00,000.00,025.7,024.9,000.0,034.3,027.6,009.9,0000.0,0003.16,0010.23,0002.18
2024-04-05 05:18:00,SystemResetWarning,0822.5,5.02,000.00,025.7,024.9,000.0,034.3,027.6,010.0,0000.0,0003.18,0010.16,0002.19
2024-04-05 05:19:00,SystemResetWarning,0822.4,4.99,000.00,025.7,024.9,000.0,034.3,027.6,010.0,0000.0,0003.15,0009.61,0002.20
2024-04-05 05:20:00,SystemResetWarning,0822.4,4.99,000.00,025.7,024.9,000.0,034.3,027.6,010.0,0000.0,0003.14,0009.74,0002.20
2024-04-05 05:21:00,SystemResetWarning,0822.4,4.99,000.00,025.7,024.9,000.0,034.3,027.6,010.1,0000.0,0003.12,0009.72,0002.17
2024-04-05 05:22:00,SystemResetWarning,0822.5,5.01,000.00,025.7,024.9,000.0,034.3,027.6,010.1,0000.0,0003.17,0009.17,0002.17
2024-04-05 05:23:00,SystemResetWarning,0822.4,5.01,000.00,025.7,024.9,000.0,034.3,027.6,010.1,0000.0,0003.14,0009.91,0002.16
2024-04-05 05:24:00,SystemResetWarning,0822.6,5.01,000.00,025.7,024.9,000.0,034.3,027.6,010.1,0000.0,0003.13,0009.68,0002.15
2024-04-05 05:25:00,SystemResetWarning,0822.4,4.99,000.00,025.7,024.9,000.0,034.3,027.6,010.1,0000.0,0003.14,0009.49,0002.15
2024-04-05 05:26:00,SystemResetWarning,0822.4,4.99,000.00,025.7,024.9,000.0,034.3,027.6,010.1,0000.0,0003.09,0008.34,0002.15
2024-04-05 05:27:00,SystemResetWarning,0822.5,5.01,000.00,025.7,024.9,000.0,034.3,027.6,010.1,0000.0,0003.09,0007.76,0002.15
2024-04-05 05:28:00,SystemResetWarning,0822.4,5.01,000.00,025.7,024.8,000.0,034.3,027.5,010.0,0000.0,0003.10,0008.38,0002.15
2024-04-05 05:29:00,SystemResetWarning,0822.5,5.00,000.00,025.7,024.8,000.0,034.3,027.5,010.1,0000.0,0003.12,0008.70,0002.14
2024-04-05 05:30:00,SystemResetWarning,0822.4,5.00,000.00,025.7,024.8,000.0,034.3,027.5,010.0,0000.0,0003.16,0008.91,0002.13
2024-04-05 05:31:00,SystemResetWarning,0822.4,4.99,000.00,025.7,024.8,000.0,034.3,027.5,009.6,0000.0,0003.14,0010.08,0002.11
2024-04-05 05:32:00,SystemResetWarning,0822.4,4.99,000.00,025.7,024.8,000.0,034.3,027.5,009.9,0000.0,0003.15,0010.30,0002.10
2024-04-05 05:33:00,SystemResetWarning,0822.4,5.00,000.00,025.7,024.7,000.0,034.3,027.5,010.2,0000.0,0003.11,0010.27,0002.08
2024-04-05 05:34:00,SystemResetWarning,0822.4,5.01,000.00,025.7,024.7,000.0,034.3,027.5,010.0,0000.0,0003.06,0011.01,0002.08
2024-04-05 05:35:00,SystemResetWarning,0822.4,5.01,000.00,025.7,024.7,000.0,034.3,027.5,009.9,0000.0,0003.07,0010.75,0002.08
2024-04-05 05:36:00,SystemResetWarning,0822.4,5.00,000.00,025.7,024.7,000.0,034.3,027.5,010.0,0000.0,0003.06,0011.16,0002.07
2024-04-05 05:37:00,SystemResetWarning,0822.4,4.99,000.00,025.7,024.7,000.0,034.3,027.5,010.2,0000.0,0003.02,0011.50,0002.07
2024-04-05 05:38:00,SystemResetWarning,0822.4,4.99,000.00,025.7,024.8,000.0,034.3,027.5,010.0,0000.0,0003.01,0011.87,0002.07
2024-04-05 05:39:00,SystemResetWarning,0822.3,4.99,000.00,025.7,024.8,000.0,034.3,027.5,010.0,0000.0,0003.00,0011.43,0002.06
2024-04-05 05:40:00,SystemResetWarning,0822.4,5.00,000.00,025.7,024.8,000.0,034.3,027.5,009.6,0000.0,0002.94,0010.86,0002.05
2024-04-05 05:41:00,SystemResetWarning,0822.3,5.00,000.00,025.7,024.8,000.0,034.3,027.5,009.7,0000.0,0002.86,0011.00,0002.04
2024-04-05 05:42:00,SystemResetWarning,0822.4,5.00,000.00,025.7,024.8,000.0,034.3,027.5,009.8,0000.0,0002.90,0010.11,0002.06
2024-04-05 05:43:00,SystemResetWarning,0822.3,5.00,000.00,025.7,024.7,000.0,034.3,027.5,009.8,0000.0,0002.89,0010.05,0002.07
2024-04-05 05:44:00,SystemResetWarning,0822.2,5.00,000.00,025.7,024.7,000.0,034.3,027.5,009.8,0000.0,0002.96,0010.63,0002.08
2024-04-05 05:45:00,SystemResetWarning,0822.3,4.99,000.00,025.7,024.7,000.0,034.3,027.5,009.8,0000.0,0003.02,0009.40,0002.09
2024-04-05 05:46:00,SystemResetWarning,0822.3,5.00,000.00,025.7,024.7,000.0,034.3,027.5,010.1,0000.0,0002.99,0009.70,0002.10
2024-04-05 05:47:00,SystemResetWarning,0822.2,5.00,000.00,025.7,024.7,000.0,034.3,027.5,010.4,0000.0,0002.91,0009.61,0002.10
2024-04-05 05:48:00,SystemResetWarning,0822.2,5.00,000.00,025.7,024.7,000.0,034.3,027.5,010.4,0000.0,0002.92,0009.24,0002.10
2024-04-05 05:49:00,SystemResetWarning,0822.2,5.00,000.00,025.7,024.7,000.0,034.3,027.5,010.3,0000.0,0002.93,0008.93,0002.10
2024-04-05 05:50:00,SystemResetWarning,0822.2,5.01,000.00,025.7,024.8,000.0,034.3,027.5,010.3,0000.0,0002.90,0008.79,0002.11
2024-04-05 05:51:00,SystemResetWarning,0822.1,5.00,000.00,025.7,024.8,000.0,034.3,027.5,010.4,0000.0,0002.92,0008.75,0002.14
2024-04-05 05:52:00,SystemResetWarning,0822.1,5.00,000.00,025.7,024.8,000.0,034.3,027.5,010.4,0000.0,0002.95,0008.53,0002.15
2024-04-05 05:53:00,SystemResetWarning,0822.1,5.01,000.00,025.7,024.8,000.0,034.3,027.5,010.2,0000.0,0002.95,0008.46,0002.14
2024-04-05 05:54:00,SystemResetWarning,0822.1,5.00,000.00,025.7,024.8,000.0,034.3,027.5,010.6,0000.0,0002.90,0008.25,0002.14
2024-04-05 05:55:00,SystemResetWarning,0822.1,5.00,000.00,025.7,024.8,000.0,034.3,027.5,010.4,0000.0,0002.81,0007.74,0002.13
2024-04-05 05:56:00,SystemResetWarning,0822.1,4.99,000.00,025.7,024.8,000.0,034.3,027.5,010.4,0000.0,0002.78,0007.55,0002.12
2024-04-05 05:57:00,SystemResetWarning,0822.1,4.99,000.00,025.7,024.8,000.0,034.3,027.5,010.2,0000.0,0002.84,0007.28,0002.12
2024-04-05 05:58:00,SystemResetWarning,0822.1,5.00,000.00,025.7,024.8,000.0,034.3,027.5,010.1,0000.0,0002.93,0007.08,0002.12
2024-04-05 05:59:00,SystemResetWarning,0822.1,5.00,000.00,025.7,024.8,000.0,034.3,027.5,010.0,0000.0,0002.98,0007.37,0002.13
